📊 Raw Sensor Data

Showing records 41476 to 41500 of 84,983 total

ID Distance (ft) Battery V Battery A Int Temp (°F) Int Humid (%) Ext Temp (°F) Solar V RSSI SNR Time Stamp
43520 15.4 3.94 -5 55 45 58 0.00 -68 8 06/14/2025 11:30 PM
43519 15.4 3.94 -5 55 46 56 0.00 -66 8 06/14/2025 11:15 PM
43518 15.4 3.94 -5 55 47 56 0.00 -68 7 06/14/2025 11:00 PM
43517 15.5 4.01 -5 56 47 57 0.00 -68 7 06/14/2025 10:45 PM
43516 15.4 4.01 -5 57 48 58 0.00 -67 8 06/14/2025 10:30 PM
43515 15.4 4.01 -5 58 48 58 0.00 -69 8 06/14/2025 10:15 PM
43514 15.4 3.94 -5 59 49 61 0.10 -68 7 06/14/2025 10:00 PM
43513 15.4 3.94 -5 59 50 60 0.10 -67 8 06/14/2025 09:45 PM
43512 15.4 3.94 -5 61 52 60 0.00 -66 8 06/14/2025 09:30 PM
43511 15.4 3.94 -5 62 53 61 0.00 -66 8 06/14/2025 09:15 PM
43510 15.4 4.01 -5 65 55 64 0.00 -67 8 06/14/2025 09:00 PM
43509 15.5 3.95 -5 67 57 66 0.60 -68 8 06/14/2025 08:45 PM
43508 15.5 4.00 -10 72 57 68 3.30 -68 8 06/14/2025 08:30 PM
43507 15.5 3.96 0 77 57 72 4.50 -68 8 06/14/2025 08:15 PM
43506 15.6 4.03 0 84 54 77 4.60 -69 8 06/14/2025 08:00 PM
43505 15.6 4.05 10 89 53 82 4.50 -68 8 06/14/2025 07:30 PM
43504 15.7 4.06 0 92 52 83 4.60 -70 7 06/14/2025 07:15 PM
43503 15.7 4.02 11 94 52 86 4.50 -67 8 06/14/2025 07:00 PM
43502 15.7 4.00 0 96 51 84 5.10 -67 8 06/14/2025 06:45 PM
43501 15.7 4.00 0 98 50 86 5.10 -70 8 06/14/2025 06:30 PM
43500 15.7 4.08 0 98 50 91 5.10 -70 8 06/14/2025 06:15 PM
43499 15.7 4.14 0 99 49 90 5.10 -69 8 06/14/2025 06:00 PM
43498 15.7 4.00 0 100 48 92 5.10 -67 8 06/14/2025 05:45 PM
43497 15.7 4.03 0 100 47 88 5.10 -66 7 06/14/2025 05:30 PM
43496 15.7 4.00 0 99 47 88 5.10 -67 7 06/14/2025 05:15 PM